Location: Newark
(48.3500°N, 1.3500°E)
Time: 04:52:56
(UTC+00:00)

Envisat - Visible Passes

Search period start: 19 October 2019 00:00
Search period end: 29 October 2019 00:00
Orbit: 764 x 766 km, 98.1° (Epoch: 18 October)

Date Brightness Start Highest point End Pass type
(mag) Time Alt. Az. Time Alt. Az. Time Alt. Az.
19 Oct 3.5 18:09:06 10° S 18:14:08 64° WSW 18:19:12 10° NNW visible
20 Oct 3.0 17:32:21 10° SSE 17:37:22 64° ENE 17:42:25 10° N visible
20 Oct 5.7 19:13:16 10° SW 19:16:51 19° W 19:20:27 10° NW visible
21 Oct 6.1 05:38:35 10° NE 05:41:52 17° E 05:45:07 10° SE visible
21 Oct 4.5 18:35:01 10° SSW 18:39:45 38° W 18:44:30 10° NNW visible
22 Oct 3.2 17:57:46 10° S 18:02:51 79° WSW 18:07:58 10° NNW visible
22 Oct 6.2 19:41:12 10° WSW 19:42:43 11° W 19:44:14 10° WNW visible
23 Oct 3.2 17:21:14 10° SE 17:26:08 52° ENE 17:31:05 10° N visible
23 Oct 5.4 19:01:26 10° SW 19:05:27 23° W 19:09:31 10° NW visible
24 Oct 6.3 05:27:56 10° ENE 05:30:26 14° E 05:32:57 10° ESE visible
24 Oct 4.1 18:23:32 10° S 18:28:25 47° W 18:33:21 10° NNW visible
25 Oct 3.0 17:46:29 10° SSE 17:51:34 85° ENE 17:56:41 10° NNW visible
25 Oct 6.0 19:28:37 10° WSW 19:31:17 14° W 19:33:58 10° NW visible
26 Oct 5.9 05:52:18 10° NE 05:56:17 23° E 06:00:14 10° SE visible
26 Oct 3.4 17:10:10 10° SE 17:14:55 42° ENE 17:19:43 10° N visible
26 Oct 5.0 18:49:43 10° SSW 18:54:05 29° W 18:58:30 10° NW visible
27 Oct 6.6 05:17:53 10° ENE 05:19:00 11° E 05:20:08 10° E visible
27 Oct 3.6 18:12:06 10° S 18:17:07 59° W 18:22:09 10° NNW visible
28 Oct 2.9 17:35:17 10° SSE 17:40:20 69° ENE 17:45:24 10° N visible
28 Oct 5.8 19:16:30 10° SW 19:19:52 18° W 19:23:15 10° NW visible
